Retour au catalogue

ATLAS CENTAUR DEB

ActifGTO
NORAD 25253·DEBRIS·🇺🇸 United States

Lancé Jun 29, 1978 depuis Cape Canaveral Space Force Station

Loading…

TLE

PériméSource: Space-Track

Époque: Sep 13, 2026, 08:38 UTC

1 25253U 78068C   26256.36034197 -.00000178  00000-0  15181-2 0  9995
2 25253  22.0808  11.0344 7063090 157.1960 312.5294  2.25086414239952

Suivez ATLAS CENTAUR DEB en temps réel avec AllMySat

Download on the App Store